Regional Weather Roundup
Issued by NWS Pendleton, OR

Home | Current Version | Previous Version | Text Only | Print | Product List | Glossary On
Versions: 1 2 3 4 5 6 7 8 9 10 11 12 13 14 15 16 17 18 19 20 21 22 23 24 25 26 27 28 29 30 31 32 33 34 35 36 37 38 39 40 41 42 43 44 45 46 47 48 49 50
000
ASUS46 KPDT 241825
RWRPDT
PENDLETON REGIONAL WEATHER ROUNDUP
NATIONAL WEATHER SERVICE PENDLETON OREGON
1100 AM PDT THU JUL 24 2014

NOTE: FAIR INDICATES FEW OR NO CLOUDS BELOW 12,000 FEET WITH NO
SIGNIFICANT WEATHER AND/OR OBSTRUCTIONS TO VISIBILITY.

# INDICATES UNOFFICIAL STATION AND DATA

WAZ520-241910-
EAST SLOPES OF WASHINGTON CASCADES

CITY            SKY/WX      TMP DP  RH  WIND    PRES   REMARKS
#BUMPING DAM    N/A         51  N/A N/A S9      N/A
#CLE ELUM HS    N/A         56  46  69  W1      30.08R
#CLE ELUM LAKE  N/A         52  50  93  CALM    30.10R
#CLIFFDEL 2NW   N/A         56  44  64  W5      N/A
#GLENWOOD       N/A         60  51  72  S7      30.16R
#MANASTASH CYN  N/A         57  46  67  CALM    30.10R
#NELSON         N/A         56  50  80  CALM    30.10R
#NELSON 3SW     N/A         52  48  86  CALM    30.31R
#RONALD 2NW     N/A         54  49  83  W2      30.02R
#TROUT LAKE 1NE N/A         58  50  75  NW8     30.20R
$$

WAZ521-241910-
SIMCOE HIGHLANDS

CITY            SKY/WX      TMP DP  RH  WIND    PRES   REMARKS
#BICKLETON HS   N/A         55  39  55  W18G28  30.18S
#CENTERVILLE 1SWN/A         60  49  67  W15     30.16S
#GOLDENDALE 1NE N/A         60  44  55  SW8     N/A
#GOLDENDALE 1S  N/A         60  50  69  W10     30.17F
#GOLDENDALE 5WNWN/A         60  49  67  SW20    30.18S
#GOODNOE HILLS  N/A         65  49  56  W26     30.12F
#LYLE 6NE       N/A         60  51  72  SW8     30.17R
$$

WAZ026-241910-
KITTITAS VALLEY

CITY            SKY/WX      TMP DP  RH  WIND    PRES   REMARKS
ELLENSBURG AP   MOCLDY      66  44  45  E5      30.12S
6HR MIN TEMP:   45; 6HR MAX TEMP:   66;

#ELLENSBURG CWU N/A         63  47  56  N1      30.06S
#ELLENSBURG 3NE N/A         61  47  60  S2      30.12S
#KITTITAS 3S    N/A         62  50  65  NW5     30.08R
#THORP 6N       N/A         58  49  72  N10     30.11R
$$

WAZ027-241910-
YAKIMA VALLEY

CITY            SKY/WX      TMP DP  RH  WIND    PRES   REMARKS
YAKIMA AIRPORT  PTCLDY      70  45  41  SW12    30.12S
6HR MIN TEMP:   45; 6HR MAX TEMP:   71;

#COWICHE 1N     N/A         64  46  52  W6      30.24S
#DONALD 2NE     N/A         67  43  42  SW1     30.30S
#GRANDVIEW      N/A         68  43  40  W3      30.14S
#MOXEE 2E       N/A         68  29  23  S8      30.01F
#NACHES 2SW     N/A         67  48  50  W1      30.12S
#OUTLOOK DOT    N/A         N/A N/A N/A W12     N/A
#SELAH 8E       N/A         68  43  40  S10     N/A
#TERRACE HTS    N/A         67  46  47  S7      30.06S
#TOPPENISH      N/A         68  45  44  SW12    30.02S
#WAPATO 4NE     N/A         67  43  42  SW1     30.30S
#W YAKIMA       N/A         69  48  47  S2      30.08F
#WHITE SWAN 5E  N/A         71  49  46  W18G26  30.09F
#WILEY CITY 3W  N/A         67  46  47  CALM    30.12S
$$

WAZ028-241910-
LOWER COLUMBIA BASIN...WASHINGTON

CITY            SKY/WX      TMP DP  RH  WIND    PRES   REMARKS
HANFORD         MOSUNNY     72  42  34  SW18G28 30.11F
PASCO           SUNNY       71  46  41  SW21G30 30.16S
6HR MIN TEMP:   57; 6HR MAX TEMP:   71;

PROSSER AWOS    N/A         70  48  46  W10     30.17S
RICHLAND AWOS   SUNNY       70  43  38  SW18G26 30.15S
#BASIN CITY 5SW N/A         70  50  49  S5      30.13F
#BENTON CITY    N/A         68  47  47  SW15G28 30.03F
#CONNELL 5N     N/A         67  47  49  SW8     30.12S
#CONNELL 5NW    N/A         67  49  52  S12     30.08S
#ELTOPIA 6NW    N/A         66  50  56  S12     29.11S
#KENNEWICK 3S   N/A         66  46  48  W8G26   30.14S
#PASCO-BROADMOORN/A         71  47  42  N10     30.04
#PATERSON       N/A         69  47  45  SW16    30.14F
#PROSSER        N/A         67  44  43  SW13    30.12F
#SAGEMOOR 2W    N/A         67  51  56  S13G29  29.98S
#TOUCHET 2S     N/A         71  49  46  W12     30.14S
#WEST PASCO     N/A         71  52  51  W8      30.17S
$$

WAZ029-241910-
FOOTHILLS OF THE BLUES...WASHINGTON

CITY            SKY/WX      TMP DP  RH  WIND    PRES   REMARKS
WALLA WALLA AP  MOCLDY      68  41  37  SW15    30.20S
6HR MIN TEMP:   56; 6HR MAX TEMP:   68;

#COLLEGE PLACE  N/A         73  41  31  SW2     30.18S
#DAYTON SCHOOL  N/A         63  36  36  SW6     30.16S
#LOWDEN 2SE     N/A         68  46  45  W9      30.14S
#PLEASANT VIEW 1N/A         65  44  46  SW15G31 30.17R
#PRESCOTT       N/A         66  45  47  SW8     30.14S
#SUDBURY        N/A         69  N/A N/A W3      N/A
#WHITMAN COLLEGEN/A         67  44  43  W9      30.21F
#WAITSBURG 8N   N/A         65  31  28  S12     30.00S
#WALLA WALLA 5E N/A         66  43  43  S15     N/A
#WALLA WALLA U  N/A         68  45  44  SW7     30.15F
#WHITMAN MISSIONN/A         68  50  53  SW6     30.16F
$$

WAZ030-241910-
BLUE MOUNTAINS...WASHINGTON

CITY            SKY/WX      TMP DP  RH  WIND    PRES   REMARKS
$$

ORZ009-041-WAZ024-241910-
COLUMBIA RIVER GORGE

CITY            SKY/WX      TMP DP  RH  WIND    PRES   REMARKS
HOOD RIVER AP   MOCLDY      63  52  67  W7      30.22R
THE DALLES AP   CLOUDY      65  51  60  NW13    30.21R
6HR MIN TEMP:   53; 6HR MAX TEMP:   66;

#ARLINGTON AIRPON/A         66  48  52  W20     N/A
#ARLINGTON HS   N/A         69  45  42  NW5     30.08F
#CELILO DOT     N/A         70  48  46  SE3     N/A
#MOSIER 1S      N/A         63  44  50  W3      30.27R
#MURDOCK        N/A         66  54  65  NW8     30.22S
#RUFUS DOT      N/A         69  48  47  W15     N/A

$$

ORZ510-241910-
NORTH CENTRAL OREGON

CITY            SKY/WX      TMP DP  RH  WIND    PRES   REMARKS
#CHENOWITH 1W   N/A         57  50  77  W13     N/A
#COW CYN RST AREN/A         58  42  55  SW8     N/A
#DUFUR 9E       N/A         57  46  67  NW9     30.25R
#GRASS VALLEY 1SN/A         62  46  56  SW12    30.21R
#KENT DOT       N/A         61  36  39  SW22    N/A
#MAUPIN SCHOOL  N/A         66  48  52  W14     30.23F
#MORO SCHOOL    N/A         62  51  67  SW5     30.22S
#SHANIKO 5WSW   N/A         56  34  43  W16     N/A
#SHANIKO 4NW    N/A         55  40  57  W17G25  30.25R
#TYGH VALLEY 2NEN/A         66  49  54  SW14    30.16F
#WAPANITIA AIRPON/A         62  48  60  NW14    30.20S
#WASCO DOT      N/A         66  44  45  W9      N/A
#WASCO 5NE      N/A         65  47  52  W12     30.18S
$$

ORZ511-241910-
CENTRAL OREGON

CITY            SKY/WX      TMP DP  RH  WIND    PRES   REMARKS
BEND AIRPORT    SUNNY       59  36  42  CALM    30.28S
MADRAS AIRPORT  MOCLDY      61  39  44  NW5     30.26S
REDMOND AIRPORT SUNNY       61  37  41  VRB3    30.25F
6HR MIN TEMP:   33; 6HR MAX TEMP:   61;

#BEND 6E        N/A         60  34  37  CALM    30.15F
#BEND 1SW       N/A         59  38  45  W2      N/A
#BEND-AWBREY    N/A         59  40  49  NE1     30.21S
#BEND-KIM LN    N/A         61  43  51  N1      30.23F
#CROOKED RVR RANN/A         63  42  46  NE2     30.21S
#CULVER         N/A         61  42  50  W3      30.21F
#LAKE BILLY CHINN/A         60  14  16  NW7     30.23F
#POWELL BUTTE 3EN/A         57  40  53  W5      N/A
#POWELL BUTTE   N/A         65  45  48  NW7     29.88F
#PRINEVILLE 3N  N/A         58  42  55  CALM    30.19S


ORZ509-241910-
EAST SLOPES OF OREGON CASCADES

CITY            SKY/WX      TMP DP  RH  WIND    PRES   REMARKS
#BLUE BOX PASS  N/A         47  -4  11  NW5     N/A
#BLACK BUTTE RNCN/A         58  44  60  E1      30.23R
#CAMP SHERMAN   N/A         61  44  53  SW2     30.24R
#LA PINE DOT    N/A         60  30  32  NE1     N/A
#LA PINE 4NW    N/A         56  40  55  N2      30.27F
#LAVA BUTTE DOT N/A         58  35  42  SE3     N/A
#SISTERS AIRPOR N/A         60  47  62  N9      30.22F
#SISTERS ODOT   N/A         60  N/A N/A S7      N/A
#SISTERS 3N     N/A         60  32  35  NW3     30.28S
#SUNRIVER       N/A         60  42  51  SE2     30.10F
#SUNRIVER AP    N/A         56  40  55  S2      30.19F
#SUTTLE LK DOT  N/A         49  43  80  CALM    N/A
#TUMALO 3W      N/A         59  38  45  S2      30.12R
#WANOGA BUTTE D N/A         50  37  61  SE5     N/A

$$

ORZ044-241910-
LOWER COLUMBIA BASIN...OREGON

CITY            SKY/WX      TMP DP  RH  WIND    PRES   REMARKS
HERMISTON       SUNNY       72  43  35  W18G24  30.17F
6HR MIN TEMP:   52; 6HR MAX TEMP:   73;

#BOARDMAN SCHOOLN/A         70  46  42  W7      30.15F
#BOARDMAN 3W    N/A         72  49  44  W10     29.85F
#BOARDMAN 8SW   N/A         69  48  47  SW13    30.16F
#IONE SCHOOL    N/A         66  44  45  W9      30.17F
#IRRIGON 4NW    N/A         70  48  46  SW13    N/A
#UMATILLA SCHOOLN/A         71  54  55  W9      30.22R
#UMATILLA       N/A         70  44  39  SW13    30.15S
$$

ORZ507-241910-
NORTHERN FOOTHILLS OF THE BLUES

CITY            SKY/WX      TMP DP  RH  WIND    PRES   REMARKS
PENDLETON AIRPT MOSUNNY     68  40  36  W13     30.19S
6HR MIN TEMP:   49; 6HR MAX TEMP:   69;

#ADAMS 3WNW     N/A         64  44  48  SW13    30.16F
#ATHENA         N/A         65  44  46  W5      30.18S
#HELIX SCHOOL   N/A         64  43  46  SW8     30.15S
#HELIX 3N       N/A         65  43  45  SW15G25 30.15F
#HOLDMAN 5SE    N/A         66  43  43  SW9     30.19S
#HOLDMAN 6E     N/A         67  44  43  W7      29.97F
#M-F FERNDALE   N/A         69  47  45  CALM    30.17F
#M-F GROVE ELEM N/A         67  37  33  SW7     30.17F
#M-FREEWATER 5SEN/A         67  44  43  W9      30.18F
#PDT AQUATIC CTRN/A         69  46  44  SW6     30.12F
#PENDLETON DNTN N/A         70  41  35  NW2     30.16S
#PENDLETON 5NE  N/A         68  46  45  CALM    30.15F
#PDT SUNRIDGE   N/A         67  44  43  SW5     30.20F
#PENDLETON 7NW  N/A         69  48  47  W14G26  30.11R
#PILOT ROCK     N/A         67  41  39  SW1     30.20F
#TUTUILLA       N/A         71  46  41  W8      30.10F
#UMAPINE 2E     N/A         68  48  49  SW6     30.15F
#WESTON SCHOOL  N/A         63  37  38  NW14    30.17F

$$

ORZ508-241910-
SOUTHERN FOOTHILLS OF THE BLUES

CITY            SKY/WX      TMP DP  RH  WIND    PRES   REMARKS
#AJAX           N/A         N/A N/A N/A W16     30.23S
#CONDON SCHOOL  N/A         59  44  57  SW14    30.18R
#CONDON 5W      N/A         56  40  55  W15     30.21R
#HEPPNER EOC    N/A         64  42  45  W13G33  30.12F
#HEPPNER 4NE    N/A         61  42  50  NW8     30.16F
#LEXINGTON 2SE  N/A         68  43  40  W12     30.17F
#MIKKALO        N/A         64  42  45  W14     30.20R
#RUGGS 5NE      N/A         60  39  46  W15     30.40S
#RUGGS 2SW      N/A         62  41  46  W10     30.22S

$$

ORZ502-503-241910-
BLUE MOUNTAINS

CITY            SKY/WX      TMP DP  RH  WIND    PRES   REMARKS
MEACHAM         CLOUDY      57  39  51  VRB3    30.24S
6HR MIN TEMP:   40; 6HR MAX TEMP:   58;

#BATTLE MTN DOT N/A         54  42  64  SE3     N/A
#HARDMAN 10S    N/A         53  39  59  CALM    30.27S
#HEPPNER 15SE   N/A         58  41  53  N3      30.16S
#LADD CYN SMT   N/A         61  32  33  E1      N/A
#LADD CREEK ODOTN/A         62  40  44  NE6     N/A
#LONG CREEK HS  N/A         56  40  55  N13     30.20S
#PIKES PEAK     N/A         53  40  61  SW22G30 27.99S
#TROY SCHOOL    N/A         67  44  43  N6      29.98F
#UKIAH          N/A         58  42  55  SW1     30.20F
#WESTON 4E      N/A         59  42  53  S8      30.11S
$$

ORZ505-241910-
JOHN DAY BASIN

CITY            SKY/WX      TMP DP  RH  WIND    PRES   REMARKS
JOHN DAY        SUNNY       61  34  36  S5      30.26S
#JOHN DAY KJDY  N/A         68  39  35  CALM    30.24R
#MONUMENT HS    N/A         64  37  37  NW3     30.06F
#MT. VERNON 5SE N/A         58  36  44  SW3     30.22S
#WINLOCK        N/A         62  41  46  E7      30.30F
$$

ORZ506-241910-
OCHOCO AND JOHN DAY HIGHLANDS

CITY            SKY/WX      TMP DP  RH  WIND    PRES   REMARKS
#BUCK CREEK DOT N/A         58  40  51  SE2     N/A
#HORSE RIDGE DO N/A         58  33  39  NW7     N/A
#KEYES SMT DOT  N/A         54  36  50  NW7     N/A
#PAULINA SCHOOL N/A         N/A N/A N/A NE1     30.24S
#PINE MTN OBS   N/A         50  33  52  CALM    N/A
#PRAIRIE CITY   N/A         60  34  37  SW3     30.20F
#SENECA 9NW     N/A         55  37  51  SW3     30.10F
$$

ORZ049-241910-
GRANDE RONDE VALLEY

CITY            SKY/WX      TMP DP  RH  WIND    PRES   REMARKS
LA GRANDE       MOCLDY      63  34  34  E5      30.22F
#COVE           N/A         61  42  50  CALM    30.14F
#COVE SCHOOL    N/A         63  41  44  CALM    30.20F
#COVE 6NW       N/A         62  39  43  CALM    30.19F
#ELGIN 3N       N/A         63  37  38  S5      29.93F
#ELGIN 1E       N/A         63  41  44  CALM    N/A
#IMBLER SCHOOL  N/A         60  39  46  CALM    30.17F
#ISLAND CITY 4N N/A         64  45  50  W3      30.09F
#LADD CYN DOT   N/A         64  39  40  E6      N/A
#UNION 1S       N/A         63  40  43  CALM    30.06F
$$

ORZ050-241910-
WALLOWA COUNTY

CITY            SKY/WX      TMP DP  RH  WIND    PRES   REMARKS
JOSEPH AIRPORT  SUNNY       59  36  42  E5      30.25S
#ENTERPRISE HS  N/A         59  40  49  E3      30.21F
#IMNAHA SCHOOL  N/A         67  33  28  S1      30.11S
#IMNAHA 10S     N/A         64  38  38  E2      30.19S
#JOSEPH 3N      N/A         58  41  53  E5      30.23F
#JOSEPH 3W      N/A         57  38  49  CALM    30.05F
#LOSTINE        N/A         60  37  42  NE5     29.91F
#MT HOWARD 8000 N/A         39  37  92  E2      30.31R
#PROMISE 1S     N/A         54  39  57  E7      30.27F
#SHEEP RDG 7000 N/A         39  36  89  CALM    30.09R
#WALLOWA SCHOOL N/A         62  37  39  W1      31.02F



$$



USA.gov is the U.S. government's official web portal to all federal, state and local government web resources and services.